This is the latest recevied weather packets stored in our database for station/object K0SDS. If no packets are shown the sender has not sent any weather packets the latest 10 day(s).
| Time | Temp. | Humidity | Pressure | Rain* | Wind** | Luminosity | Snow |
|---|---|---|---|---|---|---|---|
| 1778161116 | 11.11° C | 75% | 1016.2 hPa | 0 mm | - | 218 W/m² | - |
| 1778160811 | 11.11° C | 76% | 1016.2 hPa | 0 mm | - | 211 W/m² | - |
| 1778160510 | 11.11° C | 76% | 1016.2 hPa | 0 mm | - | 192 W/m² | - |
| 1778160206 | 11.11° C | 78% | 1016 hPa | 0 mm | - | 175 W/m² | - |
| 1778159904 | 10.56° C | 79% | 1016.1 hPa | 0 mm | - | 159 W/m² | - |
| 1778159600 | 10.56° C | 80% | 1016.2 hPa | 0 mm | - | 136 W/m² | - |
| 1778159297 | 10.56° C | 81% | 1016.1 hPa | 0 mm | - | 115 W/m² | - |
| 1778158994 | 10° C | 80% | 1016.5 hPa | 0 mm | - | 114 W/m² | - |
| 1778158693 | 10° C | 81% | 1016.4 hPa | 0 mm | - | 95 W/m² | - |
| 1778158390 | 9.44° C | 82% | 1016.3 hPa | 0 mm | - | 73 W/m² | - |
| 1778158087 | 9.44° C | 83% | 1016.2 hPa | 0 mm | - | 66 W/m² | - |
| 1778157784 | 8.89° C | 83% | 1016.1 hPa | 0 mm | - | 61 W/m² | - |
| 1778157483 | 8.33° C | 84% | 1016.4 hPa | 0 mm | - | 56 W/m² | - |
| 1778157179 | 8.33° C | 86% | 1016.4 hPa | 0 mm | - | 52 W/m² | - |
| 1778156875 | 7.78° C | 88% | 1016.3 hPa | 0 mm | - | 47 W/m² | - |
| 1778156570 | 7.22° C | 88% | 1016.3 hPa | 0 mm | - | 37 W/m² | - |
| 1778156267 | 6.67° C | 88% | 1016.7 hPa | 0 mm | - | 27 W/m² | - |
| 1778155963 | 6.67° C | 88% | 1016.5 hPa | 0 mm | - | 25 W/m² | - |
| 1778155659 | 6.67° C | 88% | 1016.3 hPa | 0 mm | - | 23 W/m² | - |
| 1778155356 | 6.67° C | 88% | 1016.3 hPa | 0 mm | - | 21 W/m² | - |
| 1778155052 | 6.67° C | 87% | 1016.4 hPa | 0 mm | - | 19 W/m² | - |
| 1778154748 | 6.67° C | 87% | 1016.1 hPa | 0 mm | - | 17 W/m² | - |
| 1778154443 | 6.67° C | 87% | 1016.3 hPa | 0 mm | - | 15 W/m² | - |
| 1778154141 | 6.67° C | 88% | 1016.4 hPa | 0 mm | - | 12 W/m² | - |
| 1778153839 | 6.67° C | 88% | 1016.3 hPa | 0 mm | - | 10 W/m² | - |
* Rain latest hour (hover to see other rain measurements)
** Current wind speed in m/s (hover to see current wind gust speed)